Find Starlink 35496

NORAD ID: 66114 Int'l Des: 2025-237 Owner: SPXS Country: US Constellation: starlink operational
LEOCIRCULAR

現在のビュー

3D地球を読み込み中...

About Starlink 35496

Starlink 35496 (NORAD 66114) is a starlink constellation satellite (v2 mini) launched Oct 22, 2025 by SPXS of US. It operates in LEO, CIRCULAR orbit with a mass of 575.00 kg.

次回通過

Passes for default location (London). Set your location on the main map for personalized predictions.

高度履歴

Loading altitude history...

軌道要素

1 66114U 25237A 26263.56596876 .00008753 00000-0 26986-3 0 9995
2 66114 53.1599 211.1353 0000727 109.0580 251.0501 15.34401492 52494
Epoch: Sep 20, 2026 • Age: 12 hours

現在のステータス

高度 480.8 km
遠地点 / 近地点 N/A
速度 7.62 km/s
衛星直下点 -51.08°S, 115.12°E
打ち上げ日 Oct 22, 2025
運用期間 0.9 years
タイプ internet

技術仕様

分類 Payload
質量 575.00 kg
乾燥質量 530.00 kg
長さ 0.30 m
スパン 29.00 m
形状 ? Box + pan
製造者 SPXS
バスタイプ Starlink V2MO
フェーズステータス In Orbit
所有者/国 SPXS/US

Most Searched